Regional Weather Roundup
Issued by NWS

Home | Current Version | Previous Version | Text Only | Print | Product List | Glossary Off
Versions: 1 2 3 4 5 6 7 8 9 10 11 12 13 14 15 16 17 18 19 20 21 22 23 24 25 26 27 28 29 30 31 32 33 34 35 36 37 38 39 40 41 42 43 44 45 46 47 48 49 50

000
ASUS45 KSLC 190610
RWRUT

UTAH REGIONAL WEATHER ROUNDUP
NATIONAL WEATHER SERVICE SALT LAKE CITY UT
1200 AM MDT SUN APR 19 2015

UTZ001>011-023>025-190700-

NORTHERN UTAH

CITY           SKY/WX    TMP DP  RH WIND       PRES   REMARKS
BRIGHAM CITY   CLEAR     52  33  47 W3        30.03R
HILL AFB       CLEAR     52  31  44 E6        30.02R
LOGAN          CLEAR     48  32  53 CALM      30.03R
OGDEN          CLEAR     54  30  40 CALM      30.01R
PROVO AIRPORT  CLEAR     48  36  61 S6        30.03R
SALT LAKE CITY CLEAR     53  36  52 S5        30.01R
VERNAL         MOCLDY    45  36  70 W3        30.11R
WENDOVER       CLEAR     55  12  18 S3        30.06R
HEBER CITY     PTCLDY    37  28  70 E6        30.05S THUNDER WCI  33
WEST JORDAN    CLEAR     52  34  50 CALM      30.03R

$$

UTZ012>022-026-027-190700-

SOUTHERN/CENTRAL UTAH

CITY           SKY/WX    TMP DP  RH WIND       PRES   REMARKS
BLANDING       MOCLDY    42  38  85 NE13      30.13R
BRYCE CANYON   CLEAR     34  18  52 NE6       30.12S WCI  29
CEDAR CITY     PTCLDY    44  22  41 E6        30.05R
DELTA          CLEAR     47  20  34 N6        30.04R
HANKSVILLE     PTCLDY    52  37  58 CALM      30.07R
MILFORD        CLEAR     44  20  38 NW7       30.03R
MOAB/CYNLANDS  CLOUDY    46  44  93 S6        30.03S
PRICE          CLEAR     47  32  56 NE16      30.08R
ST GEORGE      PTCLDY    64  19  17 CALM      29.93S
KANAB          CLEAR     50  18  27 NW14      30.05S

$$

REGIONAL REPORTS     COLORADO/ARIZONA

CITY           SKY/WX    TMP DP  RH WIND       PRES   REMARKS
CRAIG, CO      CLOUDY    35  31  85 SW9       30.10R WCI  28
GRAND JUNCTION CLEAR     37  36  96 E5        30.06S WCI  33
RIFLE          CLOUDY    34  32  92 E3        30.08S FOG
MONTROSE       CLOUDY    37  36  96 SE5       30.10R WCI  33
CORTEZ         LGT RAIN  47  34  60 NW21G36   30.06R
PAGE, AZ       CLEAR     62  19  19 W5        29.97S
GRAND CANYON   CLEAR     31  13  47 CALM      30.11R
KINGMAN        CLEAR     52  15  23 VRB7      29.95S
FLAGSTAFF      CLEAR     44  13  28 W3        30.11R

$$

REGIONAL REPORTS    NEVADA/IDAHO/WYOMING

CITY           SKY/WX    TMP DP  RH WIND       PRES   REMARKS
LAS VEGAS, NV  PTCLDY    76  12   8 SW13      29.81F
ELY            CLEAR     46  18  32 NW7       30.12R
ELKO           CLEAR     45  14  28 E5        30.13R
POCATELLO, ID  CLEAR     47  26  44 N6        30.09R
BURLEY         CLEAR     53  23  31 SW13      30.05R
EVANSTON, WY   CLEAR     39  29  67 SE7       30.10R WCI  34
ROCK SPRINGS   CLOUDY    38  32  79 E18       30.15R WCI  28
KEMMERER       PTCLDY    37  28  70 E6        30.14R WCI  33

$$


USA.gov is the U.S. government's official web portal to all federal, state and local government web resources and services.